FW7692 Weather Reports


time (UTC)temp
F
wind
direction
speed
knots
gust
knots
rain 1hr
in
rain 24hr
in
rain mn
in
humidity
%
barometer
mb
20260505112019 63 312 2.6 5.2 0.00 0.43 0.32 73 1001.6
20260505111039 63 311 2.6 5.2 0.00 0.43 0.32 72 1001.5
20260505102037 62 206 5.2 11.3 0.00 0.43 0.32 74 1000.4
20260505101017 62 199 6.1 8.7 0.00 0.43 0.32 75 1000.4
20260505100017 61 211 5.2 8.7 0.00 0.43 0.32 77 1000.3
20260505095017 61 205 6.1 9.6 0.00 0.43 0.32 77 1000.3
20260505094017 60 225 6.1 11.3 0.00 0.43 0.32 79 1000.1
20260505093017 59 174 5.2 8.7 0.00 0.43 0.32 82 1000.2
20260505092018 58 309 4.3 8.7 0.00 0.43 0.32 86 1000.1
20260505091018 56 277 2.6 8.7 0.00 0.43 0.32 90 1000.2
20260505090018 54 219 2.6 6.1 0.00 0.43 0.32 95 1000.0
20260505085018 53 191 1.7 4.3 0.00 0.43 0.32 98 1000.2
20260505084038 52 167 0.9 4.3 0.00 0.43 0.32 98 1000.3
20260505083018 53 110 0.9 2.6 0.00 0.43 0.32 97 1000.4
20260505082019 53 205 1.7 2.6 0.00 0.43 0.32 97 1000.6
20260505081019 53 173 1.7 4.3 0.00 0.43 0.32 97 1000.7
20260505080019 53 195 2.6 5.2 0.00 0.43 0.32 98 1000.8
20260505075019 53 159 1.7 5.2 0.00 0.43 0.32 98 1000.8
20260505074019 53 173 2.6 6.1 0.00 0.43 0.32 98 1000.8
20260505073016 54 162 1.7 5.2 0.00 0.43 0.32 98 1000.9
20260505072016 54 169 1.7 5.2 0.01 0.43 0.32 98 1000.9
20260505071017 55 182 2.6 7.0 0.06 0.43 0.32 98 1001.0
20260505070017 55 180 3.5 7.0 0.18 0.43 0.32 97 1001.2
20260505065017 56 184 3.5 7.0 0.23 0.43 0.32 96 1001.3
20260505064017 57 182 3.5 7.8 0.24 0.43 0.32 94 1001.4
20260505063017 57 224 2.6 5.2 0.29 0.43 0.32 95 1001.6
20260505062038 58 229 1.7 6.1 0.30 0.42 0.30 93 1002.8
20260505061018 57 200 6.1 10.4 0.25 0.37 0.26 94 1001.8
20260505060018 57 195 7.0 11.3 0.14 0.25 0.14 93 1002.5
20260505055018 57 199 7.0 11.3 0.08 0.20 0.08 91 1002.2
20260505054018 58 213 7.0 11.3 0.08 0.19 0.08 88 1002.2
20260505053019 59 248 7.0 12.2 0.02 0.14 0.02 81 1002.2
20260505052018 60 219 6.1 10.4 0.00 0.12 0.00 77 1002.3
20260505051059 61 211 6.1 12.2 0.00 0.12 0.00 75 1002.2
20260505041017 64 210 7.8 15.6 0.00 0.12 0.00 69 1001.9
20260505040017 63 210 6.1 12.2 0.00 0.12 0.00 70 1001.8
20260505035017 61 219 5.2 7.8 0.00 0.12 0.12 73 1001.8
20260505034018 60 218 4.3 7.8 0.00 0.12 0.12 75 1001.6
20260505033017 60 222 3.5 8.7 0.00 0.12 0.12 74 1001.7
20260505032019 60 226 2.6 7.8 0.00 0.12 0.12 73 1001.9
20260505031018 61 263 3.5 8.7 0.00 0.12 0.12 72 1002.0
20260505030038 61 239 6.1 9.6 0.00 0.12 0.12 70 1002.2
20260505025019 60 257 5.2 10.4 0.00 0.12 0.12 71 1002.3
20260505024019 59 241 3.5 8.7 0.00 0.12 0.12 72 1002.3
20260505023039 59 191 3.5 7.8 0.00 0.12 0.12 72 1002.5
20260505022019 58 190 3.5 6.1 0.00 0.12 0.12 69 1002.4
20260505021019 57 182 3.5 6.1 0.00 0.12 0.12 67 1002.5
20260505020040 57 181 4.3 7.8 0.00 0.12 0.12 68 1002.7
20260505015039 58 182 2.6 4.3 0.00 0.12 0.12 67 1002.3
20260505014037 60 185 2.6 5.2 0.00 0.12 0.12 63 1002.2
20260505013017 61 206 1.7 5.2 0.00 0.12 0.12 58 1002.1
20260505012017 62 252 2.6 5.2 0.00 0.12 0.12 55 1002.2
20260505011017 62 221 1.7 3.5 0.00 0.12 0.12 54 1002.2
20260505010017 63 291 0.9 3.5 0.00 0.12 0.12 53 1002.1
20260505005017 65 216 1.7 4.3 0.00 0.12 0.12 50 1002.1
20260505004018 65 216 2.6 5.2 0.00 0.12 0.12 49 1002.0
20260505003018 66 206 1.7 5.2 0.00 0.12 0.12 47 1002.1
20260505002018 67 208 2.6 4.3 0.00 0.12 0.12 45 1002.1
20260505001018 68 207 2.6 5.2 0.00 0.12 0.12 44 1002.2
20260505000018 69 203 4.3 7.8 0.00 0.12 0.12 42 1002.2
20260504235018 70 208 4.3 12.2 0.00 0.12 0.12 42 1002.2
20260504234019 70 209 4.3 8.7 0.00 0.12 0.12 41 1002.2
20260504233019 71 214 2.6 7.8 0.00 0.12 0.12 41 1002.2
20260504232019 71 194 5.2 12.2 0.00 0.12 0.12 40 1002.2
20260504231019 71 200 5.2 11.3 0.00 0.12 0.12 41 1002.3
20260504230019 71 218 3.5 7.8 0.00 0.12 0.12 43 1002.4
20260504225016 71 200 3.5 9.6 0.00 0.12 0.12 45 1002.5
20260504224037 70 194 5.2 10.4 0.00 0.12 0.12 46 1002.6
20260504223017 70 201 5.2 11.3 0.00 0.12 0.12 46 1002.5
20260504222017 71 207 5.2 9.6 0.00 0.12 0.12 45 1002.5
20260504221017 71 192 7.0 13.0 0.00 0.12 0.12 44 1002.5
20260504220017 71 199 6.1 13.0 0.00 0.12 0.12 44 1002.5
20260504215017 71 198 7.8 14.8 0.00 0.12 0.12 40 1002.4
20260504214038 71 200 6.1 12.2 0.00 0.12 0.12 42 1002.4
20260504213018 72 193 7.0 12.2 0.00 0.12 0.12 43 1002.5
20260504212038 72 194 6.1 12.2 0.00 0.12 0.12 44 1002.4
20260504211018 72 186 7.8 15.6 0.00 0.12 0.12 43 1002.4
20260504210038 71 183 7.8 12.2 0.00 0.12 0.12 45 1002.5
20260504205038 71 187 7.0 12.2 0.00 0.12 0.12 45 1002.5
20260504204019 71 190 7.0 15.6 0.00 0.12 0.12 45 1002.7
20260504203019 71 187 7.0 11.3 0.00 0.12 0.12 45 1002.8
20260504202019 71 190 7.8 14.8 0.00 0.12 0.12 45 1002.9
20260504201019 71 185 7.8 11.3 0.00 0.12 0.12 47 1002.9
20260504200019 70 184 7.8 12.2 0.00 0.12 0.12 48 1003.1
20260504195016 70 185 8.7 13.0 0.01 0.12 0.12 48 1003.2
20260504194037 70 187 8.7 14.8 0.01 0.12 0.12 47 1003.4
20260504193017 70 189 8.7 15.6 0.01 0.12 0.12 48 1003.5
20260504192017 70 191 5.2 10.4 0.01 0.12 0.12 49 1003.8
20260504191017 69 195 6.1 12.2 0.01 0.12 0.12 49 1003.9
20260504190017 69 194 9.6 16.5 0.01 0.12 0.12 49 1004.1
20260504185017 69 191 7.8 13.9 0.00 0.12 0.11 50 1004.2
20260504184038 68 194 7.0 12.2 0.00 0.12 0.11 52 1004.2
20260504183018 68 217 6.1 13.0 0.01 0.12 0.11 52 1004.4
20260504182018 67 228 7.8 15.6 0.01 0.12 0.11 53 1004.5
20260504181018 67 244 6.1 11.3 0.01 0.12 0.11 53 1004.6
20260504180039 66 248 7.0 13.9 0.01 0.12 0.11 54 1004.8
20260504175019 66 228 7.8 14.8 0.02 0.12 0.11 54 1005.0
20260504174039 66 201 8.7 14.8 0.02 0.12 0.11 54 1005.1
20260504173019 65 223 7.0 15.6 0.03 0.12 0.10 55 1005.2
20260504172019 64 267 7.0 11.3 0.04 0.11 0.10 55 1005.3
20260504171019 64 212 7.0 13.9 0.04 0.11 0.10 55 1005.5
20260504151018 61 204 9.6 13.9 0.02 0.04 0.03 56 1005.9
20260504141017 59 211 7.8 19.1 0.01 0.02 0.01 57 1005.8